Regional Weather Roundup
Issued by NWS Kansas City/Pleasant Hill, MO

Home | Current Version | Previous Version | Text Only | Print | Product List | Glossary On
Versions: 1 2 3 4 5 6 7 8 9 10 11 12 13 14 15 16 17 18 19 20 21 22 23 24 25 26 27 28 29 30 31 32 33 34 35 36 37 38 39 40 41 42 43 44 45 46 47 48 49 50
000
ASUS43 KEAX 292010
RWREAX

WEATHER ROUNDUP FOR EASTERN KANSAS AND NORTHWEST MISSOURI
NATIONAL WEATHER SERVICE KANSAS CITY/PLEASANT HILL MO
300 PM CDT WED MAR 29 2017

KSZ040-057-103>105-MOZ028-029-037-043-292100-
...KANSAS CITY METROPOLITAN AREA...

CITY           SKY/WX    TMP DP  RH WIND       PRES   REMARKS
K.C. INTL      CLOUDY    53  51  93 E18       29.72F
K.C. DOWNTOWN  CLOUDY    57  53  86 E12       29.69F
LEES SUMMIT    CLOUDY    58  55  90 E10       29.71S
OLATHE - IXD   CLOUDY    62  56  80 E14G21    29.66F
OLATHE - OJC   CLOUDY    60  57  89 E14       29.67F
LAWRENCE       CLOUDY    58  55  90 NE17      29.66F

$$

MOZ001>008-011>017-020>025-030>033-038>040-044>046-053-054-292100-
...NORTHERN AND CENTRAL MISSOURI...

CITY           SKY/WX    TMP DP  RH WIND       PRES   REMARKS
ST. JOSEPH     CLOUDY    51  50  96 E10       29.74F
MOSBY          CLOUDY    54  50  87 E12G18    29.75R
WARRENSBURG    CLOUDY    59  54  82 E9        29.71F
WHITEMAN AFB   PTSUNNY   62  62 100 SE16G22   29.71F
CLINTON        PTSUNNY   68  57  68 SE13      29.69F
SEDALIA        CLOUDY    62  57  83 E13       29.73F
WARSAW         NOT AVBL
CHILLICOTHE      N/A     52  49  89 E9G23     29.78F
KIRKSVILLE     CLOUDY    50  49  96 E16G24    29.82F

$$

MOZ041-047>049-056>058-063>065-088>090-097-292100-
...EASTERN AND SOUTHERN MISSOURI...

CITY           SKY/WX    TMP DP  RH WIND       PRES   REMARKS
ST. LOUIS INTL CLOUDY    63  52  67 E21       29.88F
SPIRIT OF STL  CLOUDY    62  54  74 E14G24    29.86F
COLUMBIA       PTSUNNY   60  54  80 E26G33    29.78S
JEFFERSON CITY CLOUDY    63  53  70 E17G26    29.77F
ROLLA          CLOUDY    68  56  65 SE18G29   29.77F
OSAGE BEACH    CLOUDY    72  57  59 E16G23    29.72F
SPRINGFIELD    PTSUNNY   70  58  65 S21G31    29.71R
BRANSON        CLOUDY    72  55  56 S15G29    29.76R
JOPLIN         CLOUDY    73  57  57 S21G33    29.66F
WEST PLAINS    CLOUDY    71  59  65 SE15G24   29.80F

$$

IAZ060-094-KSZ022-034>040-054-083-096-NEZ052-066-093-292100-
...KANSAS...SOUTHEAST NEBRASKA AND IOWA...

CITY           SKY/WX    TMP DP  RH WIND       PRES   REMARKS
TOPEKA         CLOUDY    57  56  96 E18       29.65F
MANHATTAN      CLOUDY    50  50 100 NE12      29.68S
EMPORIA        PTSUNNY   66  59  78 S15       29.60F
CHANUTE        PTSUNNY   72  59  63 S16G24    29.62S
WICHITA        CLOUDY    59  54  83 S18       29.58F
OMAHA          RAIN      43  39  86 NE17      29.91F FOG
LINCOLN        LGT RAIN  45  42  89 NE22G29   29.86F FOG
FALLS CITY     LGT RAIN  47  46  97 NE12      29.75F FOG
LAMONI         CLOUDY    48  46  93 E12       29.80F
DES MOINES     RAIN      45  42  89 E18G26    29.89F FOG

$$




USA.gov is the U.S. government's official web portal to all federal, state and local government web resources and services.